Tracking 32139 objects as of 17-Nov-2025
HD Live streaming from Space Station
objects crossing your sky now

STARLINK-34860

Track STARLINK-34860 now!
10-day predictions
STARLINK-34860 is classified as:


NORAD ID: 65357
Int'l Code: 2025-190G
Perigee: 481.1 km
Apogee: 483.6 km
Inclination: 53.2 °
Period: 94.1 minutes
Semi major axis: 6853 km
RCS: Unknown
Launch date: August 28, 2025
Source: United States (US)
Launch site: AIR FORCE EASTERN TEST RANGE (AFETR)
Your satellite tracking list
Your tracking list is empty




NASA's NSSDC Master Catalog

Two Line Element Set (TLE):
1 65357U 25190G   25320.29828662  .00053680  00000-0  18115-2 0  9998
2 65357  53.1612 334.9341 0001865  84.2052 275.9161 15.30199076 11929
Source of the keplerian elements: AFSPC